Location: Derby
(52.9213°N, 1.4761°W)
Time: 02:13:41
(UTC+01:00)

Vanguard 2 Rocket - Pass Details

Date: 20 May 2025
Orbit: 554 x 3293 km, 32.9° (Epoch: 12 June)

Event Time Altitude Azimuth Distance (km) Brightness Sun altitude
Rises 22:26:28 0° 208° (SSW) 7,253 11.2 -9.5°
Reaches altitude 10° 22:33:22 10° 195° (SSW) 6,097 10.7 -10.1°
Maximum altitude 22:45:08 21° 156° (SSE) 4,641 9.9 -11.1°
Drops below altitude 10° 22:54:29 10° 115° (ESE) 4,762 10.1 -11.8°
Sets 22:58:51 0° 100° (E) 5,325 10.4 -12.1°
